铱星星座 109星 (IRIDIUM 109)

导读 | 星芒AI

IRIDIUM 109 是 IRIDIUM 卫星通信系统的一部分,由铱星公司运营,主要用于提供全球范围的语音和数据通信服务。该卫星属于 LEO(低地球轨道)卫星群,运行在约 780 公里的高度,与其他 IRIDIUM 卫星共同构建星间链路,实现无缝通信。IRIDIUM 109 在 1997 年发射,是早期部署的卫星之一,支持航空、航海及偏远地区用户的移动通信需求。该系统在 2000 年代初曾因财务问题停运,后由 IRIDIUM NEXT 计划成功升级并恢复服务。

基本信息
目录编号:
41919
目录名称:
IRIDIUM 109
国际标识:
2017-003C
轨道中心:
EARTH
卫星名称:
铱星星座 109星
卫星全名:
铱星星座 109星 (IRIDIUM 109)
卫星状态:
在轨 (已飞行3210 天)
发射日期:
2017-01-14 UTC
国别 :
美国 (US)
星等 :
--
轨道信息
数据来源 国际轨道数据
星历时间: 2025-10-28T22:19:58+0800
17小时前
查看轨道信息
半长轴: 7155.811km
偏心率: 0.0002215
轨道倾角: 86.403°
近地点辐角 80.881°
升交点赤经 185.251°
平近点角 279.264°
近地点: 776.09km
远地点: 779.262km
周期: 100.403分钟
每日圈数: 14.342157
详细信息
平衡模式:
三轴稳定
覆盖范围:
全球
运营商:
铱星通信公司
运营商所在国:
美国
使用方式:
暂无
卫星简介
铱星(Iridium)是由共66个运作中的通信卫星组成的卫星通信系统。这个系统原本规划77个通信卫星,所以用原子序数为77的铱元素来命名。铱卫星允许人们使用手持型电子设备进行全球性的语音及数据通讯。该卫星仍在工作。
2D轨道图
3D轨道图
轨道高度分析图
轨道倾角分析图
轨道综合分析图
查看轨道综合分析图